Location: Beetenbrück
(52.8113°N, 9.5946°E)
Time: 21:19:40
(UTC+00:00)

Cosmos 1733 Rocket - Pass Details

Date: 14 April 2026
Orbit: 597 x 619 km, 82.5° (Epoch: 12 May)

Event Time Altitude Azimuth Distance (km) Brightness Sun altitude
Exits shadow 19:20:40 10° 143° (SE) 1,969 5.1 -9.3°
Reaches altitude 10° 19:20:40 10° 143° (SE) 1,965 5.1 -9.3°
Maximum altitude 19:24:15 26° 88° (E) 1,232 4.1 -9.8°
Drops below altitude 10° 19:27:53 10° 32° (NNE) 1,989 5.7 -10.3°
Sets 19:30:24 0° 20° (NNE) 2,903 6.7 -10.6°
